Flag for U.S.A. Weather past 2 weeks in Livonia, Michigan, U.S.A.

Now
58 °F

Partly sunny.


Feels Like: 56 °F
Forecast: 36 / 59 °F
Wind: 8 mph from West

Location: Detroit Metropolitan Wayne County Airport

Current Time: Oct 23, 2014 at 4:00:07 PM

Latest Report: Oct 23, 2014 at 2:53 PM


Visibility: 10 mi

Pressure: 30.17 "Hg

Humidity: 51%

Dew point: 40 °F

Location of LivoniaLocation

Historic Weather in Livonia — Graph

°F

Livonia temperature yesterday

Maximum temperature yesterday: 56 °F (at 1:53 PM)
Minimum temperature yesterday: 41 °F (at 11:53 PM)
Average temperature yesterday: 48 °F

Past Weeks' High & Low Weather Summary

 TemperatureHumidityPressure
High70 °F (Oct 13, 4:53 PM)100% (Oct 13, 5:00 AM)30.35 "Hg (Oct 13, 5:00 AM)
Low32 °F (Oct 19, 7:53 AM)31% (Oct 8, 4:53 PM)29.52 "Hg (Oct 17, 2:53 PM)
Average52 °F74%29.98 "Hg
* Reported Oct 8 2:53 PM — Oct 23 2:53 PM, Livonia, Weather by CustomWeather, © 2014

Note: Actual official high and low records may vary slightly from our data, if they occured in-between our weather recording intervals... More about our weather records

Advertising

Livonia weather history for previous 24 hours

 ConditionsComfort  
Time TempWeatherWind HumidityBarometerVisibility
2:53 PM
Oct 23
58 °FPartly sunny.8 mph51%30.17 "Hg10 mi
1:53 PM57 °FScattered clouds.No wind55%30.20 "Hg8 mi
12:53 PM55 °FScattered clouds.7 mph57%30.23 "Hg10 mi
11:53 AM53 °FScattered clouds.3 mph61%30.26 "Hg10 mi
10:53 AM49 °FPassing clouds.3 mph74%30.26 "Hg10 mi
9:53 AM45 °FPassing clouds.No wind76%30.27 "Hg10 mi
8:53 AM38 °FClear.3 mph90%30.26 "Hg10 mi
7:53 AM36 °FClear.No wind92%30.26 "Hg10 mi
6:53 AM37 °FClear.No wind89%30.26 "Hg10 mi
5:53 AM37 °FClear.5 mph93%30.27 "Hg10 mi
4:53 AM37 °FClear.3 mph93%30.27 "Hg10 mi
3:53 AM37 °FClear.3 mph93%30.27 "Hg10 mi
2:53 AM39 °FClear.No wind93%30.28 "Hg10 mi
1:53 AM39 °FClear.3 mph93%30.29 "Hg10 mi
12:53 AM40 °FClear.3 mph89%30.29 "Hg10 mi
11:53 PM
Oct 22
41 °FClear.3 mph89%30.29 "Hg10 mi
10:53 PM43 °FPassing clouds.5 mph82%30.29 "Hg10 mi
9:53 PM44 °FPassing clouds.5 mph79%30.30 "Hg10 mi
8:53 PM47 °FPassing clouds.7 mph77%30.30 "Hg10 mi
7:53 PM48 °FPassing clouds.5 mph71%30.29 "Hg10 mi
6:53 PM50 °FPassing clouds.6 mph66%30.29 "Hg10 mi
5:53 PM54 °FPassing clouds.9 mph57%30.29 "Hg10 mi
4:53 PM55 °FScattered clouds.8 mph57%30.29 "Hg10 mi
Weather by CustomWeather, © 2014

See weather overviewHow to use our weather pages